Regional Weather Roundup
Issued by NWS

Home | Current Version | Previous Version | Text Only | Print | Product List | Glossary On
Versions: 1 2 3 4 5 6 7 8 9 10 11 12 13 14 15 16 17 18 19 20 21 22 23 24 25 26 27 28 29 30 31 32 33 34 35 36 37 38 39 40 41 42 43 44 45 46 47 48 49 50
000
ASUS44 KFWD 241915
RWRTX
NORTH TEXAS HOURLY WEATHER ROUNDUP
NATIONAL WEATHER SERVICE FORT WORTH TX
200 PM CDT SAT SEP 24 2016

NOTE: "FAIR" INDICATES FEW OR NO CLOUDS BELOW 12,000 FEET WITH NO
SIGNIFICANT WEATHER AND/OR OBSTRUCTIONS TO VISIBILITY.

TXZ118-119-242000-
DALLAS/FORT WORTH METROPLEX

CITY           SKY/WX    TMP DP  RH WIND       PRES   REMARKS
DFW AIRPORT    CLOUDY    80  72  76 S10       29.98F
DALLAS LOVE    PTSUNNY   84  72  67 SW7       29.99F
FTW MEACHAM    MOSUNNY   90  73  57 E13       29.96F HX  98
DAL-EXECUTIVE  CLOUDY    85  73  67 S5        29.99F HX  91
FTW-ALLIANCE   CLOUDY    88  73  61 E13       29.96F HX  95
FTW-NAS-JRB    PTSUNNY   93  66  40 S13G20    29.97F HX  96
FTW-SPINKS     PTSUNNY   90  70  51 SE12      29.99F HX  95
ARLINGTON      MOSUNNY   85  74  69 SE12      29.99F HX  92
GRAND PRAIRIE  PTSUNNY   77  75  94 SE6       30.02F
ADDISON        MOSUNNY   86  70  58 S10       30.00  HX  90
MESQUITE       PTSUNNY   88  70  55 SE12      29.99F HX  92
LANCASTER      PTSUNNY   87  71  58 S5        30.00F HX  92
$$

TXZ091>094-102>105-117-120-121-131>134-242000-
NORTH CENTRAL TEXAS

CITY           SKY/WX    TMP DP  RH WIND       PRES   REMARKS
SHRMAN/DENISON MOSUNNY   90  71  53 S13       30.01F HX  96
GAINESVILLE      N/A     87  71  58 SE16G23   30.00F HX  93
BOWIE          MOSUNNY   89  70  54 S16G22    29.97F HX  94
BRIDGEPORT     MOSUNNY   88  72  58 SE15      29.98F HX  94
DECATUR        MOSUNNY   88  67  49 S14       29.98F HX  90
DENTON         CLOUDY    86  71  60 SE21      29.98F HX  91
MCKINNEY       MOSUNNY   89  70  53 S15G24    29.99F HX  94
GREENVILLE     MOSUNNY   88  70  55 S8        30.00F HX  92
ROCKWALL       MOSUNNY   89  71  55 S14G25    29.98F HX  94
TERRELL        MOSUNNY   90  69  50 SE16      30.00F HX  94
WAXAHACHIE     CLOUDY    83  73  71 W5        30.00F HX  90
CLEBURNE       SUNNY     91  70  49 S15       29.99F HX  97
GRANBURY       PTSUNNY   91  69  47 SE10      29.97F HX  96
$$

TXZ083>090-098>101-113>116-127>130-139>142-154-155-242000-
WESTERN NORTH TEXAS

CITY           SKY/WX    TMP DP  RH WIND       PRES   REMARKS
WICHITA FALLS  MOSUNNY   89  71  55 S21G26    29.92F HX  95
WF-KICKAPOO    MOSUNNY   89  70  52 S20G28    29.94F HX  94
VERNON         MOSUNNY   91  64  40 S17G25    29.91F HX  92
ABILENE        MOSUNNY   88  69  53 S18G28    29.96F HX  92
ABILENE-DYESS  MOSUNNY   88  69  53 S23G30    29.94F HX  92
CISCO          MOSUNNY   88  68  51 S15G24    29.99F HX  91
BRECKENRIDGE   MOSUNNY   91  66  43 S12G21    29.95F HX  93
GRAHAM         MOSUNNY   90  70  51 SE13      29.94F HX  96
MINERAL WELLS  MOSUNNY   89  70  53 SE14G21   29.96F HX  94
STEPHENVILLE   PTSUNNY   90  66  45 S7G20     30.01F HX  92
COMANCHE       MOSUNNY   89  68  50 S14G20    29.99F HX  93
BROWNWOOD      MOSUNNY   91  64  40 SE12G24   29.97F HX  93
COLEMAN        PTSUNNY   88  65  46 S20       29.98F HX  90
$$

TXZ143>147-156>162-174-175-242000-
CENTRAL TEXAS

CITY           SKY/WX    TMP DP  RH WIND       PRES   REMARKS
WACO           MOSUNNY   91  72  53 S15       29.97F HX  98
WACO-MCGREGOR  PTSUNNY   90  74  59 SE16      29.97F HX  99
HILLSBORO      TSTM      76  73  90 S12G30    30.00S
CORSICANA      PTSUNNY   89  72  56 S9        29.99F HX  96
MEXIA          MOSUNNY   90  72  54 SE9G18    29.98F HX  97
HEARNE         MOSUNNY   91  73  54 SE8       29.98F HX  99
CAMERON        PTSUNNY   89  74  62 S7        29.97F HX  98
TEMPLE         PTSUNNY   91  74  57 S15       29.98F HX 100
KILLEEN        CLOUDY    85  71  62 S15       29.98F HX  90
KILLEEN-SKYLRK MOSUNNY   89  71  55 S16       29.98F HX  95
FORT HOOD      MOSUNNY   91  70  49 S15       29.95F HX  97
GATESVILLE     MOSUNNY   91  68  46 S8        29.99F HX  95
HAMILTON       PTSUNNY   90  69  49 S14       30.00F HX  95
LAMPASAS       MOSUNNY   91  73  55 S9G21     29.97F HX  99
$$

TXZ095>097-106>112-122>126-135>138-148>153-164>167-242000-
EAST TEXAS

CITY           SKY/WX    TMP DP  RH WIND       PRES   REMARKS
PARIS          MOSUNNY   91  66  43 S8G17     30.02F HX  94
SULPHUR SPRNGS SUNNY     91  63  40 S12G17    30.03F HX  92
MOUNT PLEASANT SUNNY     91  66  43 S7        30.03F HX  93
GILMER         SUNNY     90  67  46 S9        30.01F HX  93
MINEOLA        SUNNY     90  68  48 SE7       30.01F HX  93
TYLER          MOSUNNY   92  67  43 S10G18    30.01F HX  95
LONGVIEW       MOSUNNY   90  68  48 SE8G16    30.00F HX  94
MARSHALL       SUNNY     90  64  42 SE8       30.04F HX  91
ATHENS         PTSUNNY   90  70  51 SE9       29.99F HX  95
PALESTINE      MOSUNNY   91  73  55 S8        30.01F HX  99
JACKSONVILLE   MOSUNNY   87  71  57 S8        30.05F HX  93
HENDERSON      MOSUNNY   90  67  46 SE9       30.03F HX  93
CENTER         PTCLDY    91  67  45 SE10      30.03F HX  95
NACOGDOCHES    MOSUNNY   88  72  58 S6        30.00F HX  94
LUFKIN         MOSUNNY   87  70  56 S5        30.01F HX  92
$$

SUPPLEMENTAL OBSERVATIONS (CENTRAL)

CITY           SKY/WX    TMP DP  RH WIND       PRES   REMARKS
DENISON DAM      N/A     88  70  55 SE8         N/A  HX  92
CADDO GRASSLND   N/A     88  70  55 S9          N/A  HX  92
PAT MAYSE LAKE   N/A    N/A N/A N/A SE15        N/A
GREENVILLE       N/A     91  70  49 S9G17       N/A  HX  97
CEDAR HILL       N/A     86  77  74 SE2         N/A  HX  97
ATHENS           N/A     91  70  49 SE12        N/A  HX  97
LAKE LIMESTONE   N/A     93  72  49 S7G17       N/A  HX 100
MCGREGOR         N/A     88  73  62 S7G16       N/A  HX  96
TEMPLE           N/A     91  72  52 S12         N/A  HX  98
$$

SUPPLEMENTAL OBSERVATIONS (WEST)

CITY           SKY/WX    TMP DP  RH WIND       PRES   REMARKS
MILLERS CREEK    N/A     90  70  51 S15         N/A  HX  95
POSSUM KINGDOM   N/A     90  68  48 S13G21      N/A  HX  93
LBJ GRASSLAND    N/A     88  72  58 SE10        N/A  HX  94
GRANBURY         N/A     91  70  49 SE14G22     N/A  HX  97
COMANCHE         N/A     90  68  48 S14         N/A  HX  93
HAMBY            N/A     90  68  48 S17G25      N/A  HX  93
IVIE RESERVOIR   N/A     91  68  46 E12G20      N/A  HX  95
COLORADO BEND    N/A     90  66  45 S13         N/A  HX  92
$$

SUPPLEMENTAL OBSERVATIONS (EAST)

CITY           SKY/WX    TMP DP  RH WIND       PRES   REMARKS
CLARKSVILLE      N/A     91  66  43 S8G16       N/A  HX  94
TEXARKANA        N/A     91  70  49 S5          N/A  HX  97
LINDEN           N/A     91  70  49 S5          N/A  HX  97
CADDO LAKE       N/A     91  66  43 SE6         N/A  HX  94
GILMER           N/A     93  66  40 S7G15       N/A  HX  96
HENDERSON        N/A     90  66  45 S7G15       N/A  HX  92
LUFKIN           N/A     90  72  55 MISG        N/A  HX  96
N SABINE NF      N/A     93  72  49 MISG        N/A  HX 100
S SABINE NF      N/A     91  66  43 E5          N/A  HX  94
$$

SUPPLEMENTAL OBSERVATIONS ARE A COLLECTION OF AUTOMATED INSTRUMENTS
THAT ARE MAINTAINED BY A VARIETY OF FEDERAL AND STATE AGENCIES.
CERTAIN ELEMENTS...SUCH AS HUMIDITY VALUES AND SUSTAINED WIND
SPEEDS...MAY BE APPROXIMATED.





USA.gov is the U.S. government's official web portal to all federal, state and local government web resources and services.